Regional Weather Roundup
Issued by NWS

Home | Current Version | Previous Version | Text Only | Print | Product List | Glossary On
Versions: 1 2 3 4 5 6 7 8 9 10 11 12 13 14 15 16 17 18 19 20 21 22 23 24 25 26 27
000
ASUS45 KREV 300310
RWRNV
NEVADA REGIONAL WEATHER ROUNDUP
NATIONAL WEATHER SERVICE RENO NV
800 PM PDT MON AUG 29 2016

NOTE: "FAIR" INDICATES FEW OR NO CLOUDS BELOW 12,000 FEET WITH NO
SIGNIFICANT WEATHER AND/OR OBSTRUCTIONS TO VISIBILITY.

NVZ001-003-004-300400-
WESTERN NEVADA

CITY           SKY/WX    TMP DP  RH WIND       PRES   REMARKS
RENO           PTCLDY    82  30  15 NW16G23   30.11R
CARSON CITY    FAIR      81  28  15 CALM      30.15R
MINDEN         FAIR      73  36  25 NE8       30.15R
PYRAMID LAKE     N/A     82 N/A N/A SW2         N/A
FALLON         MOCLDY    80  28  15 NE7       30.04R
LOVELOCK       MOCLDY    77  25  14 NE6       30.05R
$$

NVZ002-CAZ072-073-300400-
NORTHERN AND CENTRAL SIERRA

CITY           SKY/WX    TMP DP  RH WIND       PRES   REMARKS
S. LAKE TAHOE  PTCLDY    68  35  29 S5        30.28R
TRUCKEE        MOCLDY    66  32  28 SW6       30.26S
SQUAW VLY 8000 NOT AVBL
MAMMOTH LAKES  FAIR      72  23  16 W7G16     30.33R
BRIDGEPORT       N/A     71  20  14 W7        30.29R
$$

NVZ030-031-036-300400-
NORTHERN NEVADA

CITY           SKY/WX    TMP DP  RH WIND       PRES   REMARKS
ELKO           MOCLDY    78  22  12 CALM      30.14R
WINNEMUCCA     PTCLDY    75  22  13 CALM      30.09R
WENDOVER       PTCLDY    81  34  18 CALM      30.13R
$$

NVZ035-037-300400-
CENTRAL NEVADA

CITY           SKY/WX    TMP DP  RH WIND       PRES   REMARKS
ELY            PTCLDY    71  23  16 SW9       30.24R
EUREKA           N/A     71  28  20 W3        30.19S
$$

NVZ013-014-300400-
SOUTH CENTRAL NEVADA

CITY           SKY/WX    TMP DP  RH WIND       PRES   REMARKS
TONOPAH        CLEAR     80  19  10 CALM      30.17S
$$

NVZ017-020-022-300400-
SOUTHERN NEVADA

CITY           SKY/WX    TMP DP  RH WIND       PRES   REMARKS
LAS VEGAS      CLEAR     98  31   9 CALM      29.89S
N. LAS VEGAS   CLEAR     98  38  12 SW3       29.90R
NELLIS AFB     CLEAR     98  37  12 CALM      29.87S
HENDERSON      CLEAR     93  42  17 CALM      29.95R
MERCURY        CLEAR     92  28  10 S5        29.98R
$$




USA.gov is the U.S. government's official web portal to all federal, state and local government web resources and services.